Location: Apeadero de Los Molinos-Guadarrama
(40.7091°N, 4.0689°W)
Time: 13:06:57
(UTC+00:00)

GPS 2-04 Rocket1 - Pass Details

Date: 14 May 2021
Orbit: 416 x 540 km, 35.6° (Epoch: 18 June)

Event Time Altitude Azimuth Distance (km) Brightness Sun altitude
Rises 20:30:12 0° 258° (WSW) 2,685 7.0 -11.2°
Reaches altitude 10° 20:32:33 10° 251° (WSW) 1,792 5.9 -11.6°
Maximum altitude 20:36:27 41° 181° (S) 783 3.3 -12.2°
Enters shadow 20:38:53 20° 121° (ESE) 1,268 4.0 -12.5°
